Theta_e
317 316 316 318 316 317 318 317 318 318 317 317 317 317 318 318 318 319 319 320 320 320 321 321 322 323 324 325 327 328 329 329 330 332 333 333 332 331 330 330 330 330 331 331 330 329 330 333 332 329 329 328 327 328 327 327 327 327 327 326 327 327 326
317 316 317 317 316 316 318 318 317 317 317 316 316 317 317 317 318 318 318 319 319 319 320 320 320 321 322 322 324 326 328 330 330 330 332 332 332 331 330 330 330 331 330 331 331 329 327 330 332 331 331 330 329 328 328 328 327 326 327 326 326 326 326
316 316 316 316 317 317 317 318 317 317 317 317 316 316 316 316 316 317 317 317 318 319 319 319 319 319 320 321 322 323 325 327 329 330 330 330 331 332 331 331 331 332 332 331 331 330 327 329 332 331 331 332 332 330 329 328 328 327 327 326 326 326 325
316 316 316 316 317 317 317 318 317 316 316 316 317 316 316 316 316 316 316 316 317 317 318 319 319 319 320 320 321 321 322 324 326 329 330 330 331 331 331 331 332 333 332 332 330 329 329 332 334 333 331 331 332 330 330 329 328 327 327 326 326 326 325
316 316 317 317 317 317 317 317 316 316 315 315 316 316 316 316 316 315 315 315 315 316 317 318 318 319 320 320 321 321 322 323 324 326 328 330 331 331 331 331 332 333 332 332 331 329 329 331 333 334 332 331 331 330 329 329 329 328 327 326 325 326 325
317 316 317 317 317 317 316 316 316 315 315 315 315 315 315 316 315 315 315 316 316 316 316 316 317 317 318 318 319 320 321 322 323 324 325 327 329 331 331 331 332 333 332 332 331 329 329 330 332 332 331 330 331 330 328 329 329 328 327 326 326 326 325
317 317 317 317 317 317 315 316 315 314 314 314 314 314 314 314 314 314 314 314 314 314 314 314 315 315 316 316 317 318 319 320 321 322 323 324 326 328 330 331 332 332 332 332 331 330 329 329 330 331 330 330 330 329 329 328 329 329 328 327 326 326 325
316 316 316 315 316 316 315 315 315 314 314 313 313 314 313 314 313 313 313 313 312 312 312 312 313 314 315 315 316 317 317 318 319 320 321 322 324 326 328 330 331 331 331 331 331 330 329 329 328 328 329 330 331 331 331 330 328 328 328 328 327 326 325
315 315 315 314 315 316 315 315 314 314 314 314 314 313 313 314 313 313 313 312 312 312 312 312 312 313 313 314 315 315 316 317 318 319 320 321 322 324 326 328 329 329 330 330 330 330 330 329 328 327 328 329 330 332 333 332 331 329 328 327 327 326 325
315 315 314 314 314 315 315 314 313 314 313 313 313 313 313 313 313 313 312 312 311 311 311 311 311 311 311 312 313 314 315 316 317 318 319 320 321 322 324 326 328 328 329 329 330 330 330 330 329 328 328 328 329 330 332 333 333 330 328 327 327 326 325
314 314 313 314 314 314 313 312 312 313 313 312 313 313 313 312 312 312 311 311 310 309 309 309 309 309 310 310 311 311 313 314 315 316 317 318 320 321 322 324 326 328 328 329 329 329 329 330 330 329 328 328 328 329 329 331 332 329 327 328 327 326 325
314 313 313 314 314 314 313 313 313 313 312 312 312 311 311 311 310 310 310 310 309 309 308 308 308 308 308 309 309 310 311 312 313 314 315 317 318 320 321 322 324 326 327 328 329 329 329 329 330 329 329 328 328 328 328 329 331 329 327 328 328 326 327
314 313 313 313 313 313 313 313 313 312 312 311 310 310 310 310 309 309 308 308 308 308 308 307 307 307 307 308 308 309 309 310 311 313 314 316 317 319 320 321 322 324 325 327 328 329 329 329 329 329 329 329 328 328 328 328 329 329 327 328 329 327 327
313 313 313 313 312 312 312 312 312 311 311 310 310 309 309 309 308 307 307 307 307 307 307 307 307 306 307 307 307 308 308 308 309 311 312 314 315 317 318 320 321 322 323 325 326 328 328 328 329 329 329 329 328 329 329 328 329 329 327 327 328 328 327
314 313 313 313 312 312 312 312 311 311 310 310 309 309 308 308 307 307 307 306 306 306 306 306 306 306 306 306 307 307 307 308 308 309 310 312 314 315 316 318 320 321 322 323 325 327 328 328 328 328 329 329 329 329 329 329 329 328 328 327 328 328 327
313 313 313 313 313 312 312 312 311 311 310 310 309 309 308 308 307 307 307 306 306 306 305 305 305 305 306 306 306 306 306 307 308 308 309 310 312 313 315 316 317 319 321 322 323 325 327 327 328 328 329 329 329 329 329 330 329 329 328 328 328 328 327
314 313 313 313 313 312 312 311 311 311 310 310 309 309 308 307 307 307 306 306 306 306 305 305 305 305 305 305 306 306 306 306 307 307 308 308 310 311 313 314 315 317 319 320 322 323 325 327 327 328 328 328 328 328 328 329 329 329 329 328 328 329 327
314 313 313 313 312 312 312 311 311 311 310 309 309 308 307 307 306 306 306 306 306 305 305 305 305 305 305 305 305 305 306 306 306 307 307 307 308 309 311 313 314 315 316 318 320 321 322 324 326 327 328 327 327 327 327 329 329 329 329 328 328 328 327
313 313 312 312 312 311 311 311 310 310 309 308 308 307 307 306 306 306 305 306 305 306 306 305 305 305 305 305 305 305 305 305 305 306 306 307 307 308 309 311 312 314 315 316 318 319 321 322 324 325 326 327 327 326 327 329 329 328 328 328 327 328 326
313 312 312 312 312 311 311 310 309 308 308 307 307 306 306 305 305 305 305 305 305 305 305 306 306 305 305 305 305 305 305 305 305 305 305 306 306 307 307 309 310 312 313 315 316 318 319 320 322 323 324 326 327 327 327 328 328 328 328 327 327 327 325
312 312 312 311 311 310 309 308 308 307 307 306 305 305 305 305 304 304 305 305 305 305 305 305 305 305 305 304 305 305 305 304 304 304 305 305 305 306 306 307 308 309 311 313 314 316 318 319 320 322 322 324 326 327 328 328 327 327 328 327 327 327 325
312 311 311 310 309 309 308 307 307 306 305 305 304 304 304 304 304 304 304 304 304 304 304 305 304 304 304 304 304 304 304 304 304 304 304 305 305 305 305 306 306 307 308 310 312 314 315 317 318 320 321 322 323 325 327 327 326 325 326 327 327 327 325
311 310 310 309 308 308 307 306 306 305 305 304 304 304 303 303 303 303 303 303 303 304 304 304 304 304 304 304 304 304 304 303 304 304 304 304 304 305 305 305 305 306 307 308 309 310 312 314 316 317 318 319 319 320 322 325 327 327 327 328 328 327 325
310 310 309 308 308 307 306 306 305 305 304 304 303 303 303 302 302 302 302 302 302 302 303 303 303 303 303 303 303 303 303 302 303 303 302 303 303 304 304 305 305 305 306 306 307 309 310 312 313 315 316 317 318 318 318 320 323 326 327 328 327 327 326
309 308 308 308 307 306 305 305 304 304 304 303 303 302 302 301 301 301 301 301 301 301 302 302 302 302 302 302 302 302 302 302 302 302 302 302 301 302 302 303 304 305 306 306 307 308 309 311 312 313 314 315 316 317 317 317 318 321 325 327 327 326 326
308 308 308 307 306 305 305 304 304 303 303 302 302 302 301 301 301 301 301 300 300 300 300 300 300 300 300 300 300 300 300 300 300 301 301 301 301 301 301 301 302 303 304 305 307 308 309 310 311 313 314 315 315 316 317 317 317 318 320 324 327 327 325
308 307 307 306 305 305 304 304 303 303 302 302 302 301 301 301 300 300 300 300 300 300 300 299 299 299 299 299 299 299 299 298 299 299 300 300 300 300 300 300 301 301 302 303 305 307 309 310 311 313 315 316 316 315 316 317 317 317 317 320 324 326 325
307 307 306 305 305 304 304 303 303 302 302 302 301 301 300 300 300 300 300 300 300 300 299 299 299 299 299 299 298 298 298 298 298 298 298 299 299 300 300 300 300 300 300 301 302 305 307 309 311 313 315 317 318 317 317 317 317 317 316 317 321 325 326
306 306 305 305 304 304 304 303 303 302 302 301 300 300 300 300 300 299 299 299 299 299 299 299 299 298 298 298 298 297 297 297 297 298 298 298 298 299 299 299 299 300 300 300 301 302 304 306 308 310 313 316 318 319 319 319 318 318 318 318 319 323 326
306 305 305 305 304 304 303 303 302 301 301 300 300 300 299 299 299 299 299 299 299 299 298 298 298 297 297 297 296 296 296 297 297 297 297 297 298 298 298 298 299 299 299 300 300 300 301 303 304 306 308 311 315 318 320 321 321 320 320 320 319 320 325
305 305 304 304 303 303 302 302 301 301 300 300 299 299 299 299 298 298 298 298 298 298 297 297 297 296 296 296 296 295 296 296 296 296 297 297 297 297 298 298 298 299 299 299 300 300 301 301 303 304 306 309 312 315 319 321 322 322 322 322 321 321 324
304 304 304 303 303 302 302 301 301 300 299 299 299 298 298 298 298 297 297 297 297 296 296 296 296 296 296 295 295 295 295 295 295 296 296 296 296 297 297 297 298 298 299 299 299 300 300 301 302 303 305 308 311 314 317 320 322 323 323 323 323 324 325
304 303 303 303 302 302 301 300 300 299 299 299 298 298 298 297 297 297 296 296 296 295 295 295 295 295 295 294 294 294 294 295 295 295 296 296 296 296 297 297 298 298 298 298 299 299 299 300 301 301 302 304 308 312 316 319 321 322 322 323 324 325 326
303 303 303 302 301 301 300 300 299 299 298 298 298 297 297 297 296 296 295 295 295 295 295 295 294 294 294 294 294 293 294 294 295 295 296 296 296 296 297 297 297 298 298 298 299 299 299 299 300 300 300 301 303 306 309 314 319 321 321 321 322 323 324
303 303 302 302 301 301 300 299 299 298 298 297 297 297 296 296 296 295 295 295 294 294 294 294 294 293 293 293 293 293 293 294 294 295 295 296 296 296 296 297 297 297 298 298 299 299 300 300 300 300 300 300 301 302 304 308 316 319 319 319 320 320 322
302 302 301 301 301 300 299 299 298 298 297 297 296 296 296 295 295 295 295 294 294 294 293 293 293 293 292 292 292 293 293 293 293 294 294 295 296 296 296 296 297 297 297 298 299 299 300 300 300 300 300 300 301 302 302 306 313 317 316 316 316 316 316
301 300 300 300 299 299 299 298 298 298 297 296 296 296 295 295 295 294 294 294 294 293 293 292 292 292 292 292 292 292 292 292 292 293 293 294 295 295 296 296 296 296 297 298 299 299 300 301 301 302 302 302 303 303 303 306 312 315 314 312 312 311 311
Wind_Speed
5 7 5 4 4 3 2 1 1 1 1 1 1 2 2 2 3 4 5 6 8 9 10 11 12 12 13 13 13 14 17 19 22 25 26 25 21 20 23 24 24 24 23 20 16 12 5 2 10 16 19 23 25 25 25 24 23 23 25 25 22 23 26
6 7 7 6 4 4 4 2 1 1 1 1 1 2 3 3 3 4 6 7 7 8 10 11 12 13 14 15 14 13 15 17 21 23 26 25 23 24 25 23 23 24 25 24 21 16 10 5 4 6 12 17 20 23 26 26 24 23 22 22 21 22 23
8 7 7 8 6 5 4 3 2 2 2 1 2 2 3 4 4 5 5 7 7 9 10 11 13 14 15 15 15 16 16 17 19 21 25 26 25 26 26 23 21 20 19 19 19 17 13 8 4 3 7 9 10 16 24 28 28 26 24 22 22 24 23
9 9 7 7 7 6 5 4 3 3 3 3 3 3 4 4 4 5 5 6 8 9 10 10 12 14 15 15 15 16 17 18 19 19 22 24 26 27 27 26 25 22 19 16 18 19 14 7 4 4 6 5 4 9 17 25 30 30 28 25 24 25 26
11 10 8 8 8 7 5 5 4 4 4 4 4 4 4 4 5 6 6 7 7 8 9 10 12 13 15 16 14 14 16 18 18 18 19 21 24 26 28 29 28 27 25 23 22 21 16 11 7 4 5 5 4 8 13 17 23 29 28 25 24 25 26
12 10 9 8 8 7 6 6 5 4 4 4 5 4 4 5 6 7 7 8 9 9 10 11 13 15 17 18 17 16 16 16 17 18 20 21 22 24 27 29 29 29 27 26 25 24 20 15 9 6 8 8 4 9 17 15 12 19 24 24 24 24 25
13 12 10 9 9 8 7 6 6 5 5 5 5 6 7 7 7 8 8 10 11 12 13 14 15 15 16 17 18 18 18 17 17 18 20 22 22 23 24 26 28 29 30 29 28 26 24 20 14 10 9 8 5 8 14 14 10 12 17 21 25 25 24
14 13 11 10 9 9 7 7 7 6 6 6 6 7 8 8 9 9 10 11 13 14 15 15 16 16 15 16 17 18 19 19 19 19 20 21 22 22 23 25 26 27 29 30 29 29 28 26 23 20 13 7 6 6 8 10 8 9 15 19 23 26 25
14 13 12 11 10 10 9 8 8 7 7 7 7 8 8 9 9 10 11 11 12 13 14 15 15 16 16 16 16 17 18 19 19 20 20 21 23 22 22 24 25 26 26 27 29 30 29 28 27 26 21 13 8 5 5 7 7 8 16 20 21 24 27
14 14 13 12 11 11 10 9 8 8 8 8 8 8 9 9 10 10 11 13 13 13 14 15 15 16 16 17 17 17 18 18 19 21 21 21 22 22 22 22 24 26 26 25 26 28 28 29 28 28 27 22 16 9 4 6 6 6 13 18 17 20 26
16 14 13 12 12 11 11 10 9 8 8 8 8 9 9 10 11 12 13 14 15 15 16 16 16 16 16 16 17 18 19 18 20 21 21 22 22 22 22 22 22 24 25 25 26 27 27 28 28 29 29 28 24 17 9 7 7 11 15 15 16 19 21
16 16 14 13 13 12 11 10 9 9 9 9 9 10 11 11 12 12 13 14 15 15 16 16 16 16 16 17 18 19 19 19 19 21 21 22 23 22 22 23 22 23 24 25 26 27 28 28 28 29 30 30 29 26 21 12 7 15 18 13 16 18 13
16 16 15 14 13 12 11 10 10 10 10 11 11 11 12 12 12 13 13 14 15 15 16 16 16 16 16 17 18 19 19 19 19 20 21 22 22 23 23 23 23 23 23 24 26 27 28 29 29 29 29 30 31 29 28 20 9 16 25 17 15 16 10
17 15 15 14 13 12 11 11 11 11 11 12 12 12 13 13 14 14 15 15 15 16 16 16 17 17 17 18 19 20 20 20 20 20 21 22 22 23 24 24 24 24 24 24 26 27 28 30 30 30 29 28 31 30 30 26 15 14 26 25 17 16 15
17 16 15 14 13 12 11 12 12 12 13 13 13 14 14 15 15 16 16 16 16 17 17 17 17 17 18 19 20 20 20 20 21 21 22 22 22 22 24 25 25 25 25 25 26 27 28 29 29 31 30 28 29 30 30 30 23 16 21 26 19 15 15
17 16 15 14 13 12 12 12 12 13 13 14 14 15 15 16 16 16 17 17 18 18 18 18 19 19 19 20 20 21 21 21 22 22 22 23 23 23 24 26 27 25 25 25 25 26 28 29 29 29 31 30 29 30 31 32 29 22 20 24 24 19 15
17 16 15 14 13 12 12 12 12 13 14 14 15 15 16 16 16 17 18 19 19 19 19 20 20 20 20 21 22 22 22 23 23 23 24 24 23 24 24 26 28 28 26 25 24 24 25 28 29 28 30 30 29 30 32 32 32 29 23 22 25 23 18
16 15 14 13 12 12 12 12 12 12 13 14 15 16 16 16 17 17 19 20 20 21 21 21 21 21 22 22 23 24 24 23 24 24 25 25 25 25 25 26 28 29 30 29 26 24 23 24 27 29 30 30 29 30 31 30 31 31 28 24 22 21 19
15 14 14 13 12 12 11 11 12 12 13 14 14 15 16 17 18 18 19 20 21 22 23 23 23 23 24 24 24 25 25 25 26 26 26 26 26 26 26 26 27 28 30 32 30 27 26 25 25 26 29 30 30 31 30 29 30 30 31 29 24 20 20
15 14 13 12 11 11 10 10 11 11 12 13 14 15 17 17 18 19 20 21 21 22 22 23 24 24 25 25 26 27 27 26 26 26 27 27 27 27 27 27 27 27 28 31 32 31 29 28 26 24 25 28 30 30 29 28 28 28 29 28 25 23 24
15 13 12 11 10 10 10 10 10 10 11 12 14 16 17 18 19 20 20 21 22 23 23 23 24 24 25 25 25 26 27 27 27 27 28 28 28 28 28 28 29 29 29 30 31 33 33 31 28 26 25 25 26 29 31 30 26 24 24 25 24 23 25
13 12 11 10 10 10 9 9 9 10 12 13 14 16 17 18 19 20 21 22 22 23 23 24 24 24 25 26 26 26 26 26 26 27 28 28 29 30 30 29 30 31 32 32 32 33 36 35 33 31 29 27 24 24 27 28 27 26 25 24 23 23 23
12 11 11 10 10 9 9 9 11 12 13 14 14 16 17 17 18 20 21 22 23 24 24 24 24 25 27 28 29 29 28 28 28 27 27 28 28 29 30 31 31 32 33 35 36 37 38 39 40 41 40 37 33 28 24 22 24 26 26 24 22 23 23
12 11 11 11 10 9 10 10 12 12 13 14 15 16 16 17 18 20 21 22 24 24 25 25 25 26 28 29 31 31 31 31 31 31 31 30 29 29 30 30 31 32 33 34 36 37 38 40 43 45 47 47 43 39 34 27 23 24 25 25 23 24 24
12 11 11 10 10 10 10 10 11 13 14 15 16 16 16 17 19 20 22 24 24 25 26 25 26 28 29 30 31 32 33 33 33 33 33 32 32 31 30 31 31 31 32 32 32 34 35 37 39 42 46 50 51 49 46 40 33 28 26 24 24 27 26
11 10 10 10 10 10 10 11 12 13 14 16 16 15 15 18 21 22 23 24 25 26 26 26 27 28 30 31 31 32 33 33 33 33 33 33 34 34 33 32 32 32 32 31 32 33 33 34 35 37 40 45 50 53 53 50 46 40 34 28 25 28 30
10 9 9 10 11 11 11 12 13 14 15 15 14 14 16 18 21 23 23 24 25 27 27 27 29 30 31 32 33 34 35 35 34 34 34 34 34 36 36 35 34 34 32 32 32 32 31 31 32 34 35 38 43 50 53 53 52 49 44 37 32 31 32
9 9 9 10 11 11 12 13 13 14 14 13 13 15 17 19 21 23 24 25 26 27 27 28 29 31 31 32 33 34 36 37 37 36 35 35 35 36 37 37 37 37 35 34 34 33 32 30 30 30 31 33 36 41 45 48 49 50 48 44 40 37 34
8 9 10 11 11 12 13 13 13 13 13 13 14 16 17 19 21 23 24 25 26 27 27 27 28 29 30 31 32 34 35 36 37 38 37 37 36 37 37 38 39 39 37 36 36 36 36 35 35 34 32 31 32 35 40 42 44 46 47 45 44 40 35
8 9 10 11 12 12 11 11 12 12 13 13 14 15 17 19 22 24 25 25 26 27 28 27 28 29 31 33 34 35 35 34 35 37 38 37 37 37 38 39 39 38 38 38 36 36 37 38 39 40 37 33 31 32 35 37 38 41 43 44 44 43 39
8 9 10 10 10 10 10 10 11 13 13 12 13 15 17 20 23 24 25 26 26 28 29 28 29 30 31 33 34 35 36 35 35 36 36 37 37 37 37 39 39 39 39 37 35 35 36 38 40 40 37 33 32 32 32 32 32 34 38 40 42 43 42
8 8 8 8 8 9 10 10 12 12 11 11 13 16 18 21 23 24 25 27 27 29 29 28 28 30 31 33 34 36 37 36 35 35 34 35 36 36 36 37 38 40 41 40 38 37 37 38 40 41 36 30 29 30 31 29 29 30 33 35 36 39 40
7 6 7 7 8 9 10 11 11 10 10 10 13 17 19 22 24 25 26 27 27 27 28 28 28 30 33 34 36 37 37 35 35 35 34 34 34 34 35 35 36 38 40 41 42 43 42 42 44 44 40 34 30 27 25 24 27 30 31 33 35 37 39
4 5 6 7 9 9 10 10 9 7 9 11 14 17 20 22 24 26 26 27 27 27 27 29 30 32 34 36 37 38 38 36 35 35 34 34 34 34 34 34 35 35 37 38 40 42 45 47 48 48 49 46 42 35 27 25 26 30 29 31 33 33 35
4 4 6 8 9 9 10 10 7 5 8 12 15 17 20 22 23 25 26 27 27 27 28 30 32 34 35 36 37 38 39 38 36 35 34 33 34 34 34 35 36 35 36 38 39 40 42 45 47 50 53 52 50 46 37 30 27 28 28 29 31 31 32
4 4 7 8 8 10 11 9 7 7 9 11 13 15 18 21 23 25 26 27 27 28 28 30 32 33 35 37 38 38 39 40 39 37 36 35 35 36 36 36 36 36 37 38 40 40 40 43 46 49 51 50 50 48 40 32 28 27 28 28 29 29 30
3 5 7 8 9 12 11 8 7 8 8 10 13 15 18 20 21 23 25 27 28 28 28 29 31 33 35 37 38 38 38 39 39 39 39 39 39 38 37 37 37 37 38 39 40 40 41 43 45 48 47 46 46 44 36 30 28 27 26 26 27 27 27
Wind_Direction
159 148 161 163 146 149 160 162 154 176 197 202 239 239 254 272 275 280 284 282 281 284 284 284 285 283 282 281 275 263 255 250 241 235 236 237 236 237 236 235 239 246 254 260 261 260 269 221 218 228 231 230 226 220 220 225 224 226 220 208 210 221 221
166 170 177 173 168 163 170 180 169 201 210 162 198 221 239 248 255 264 270 275 276 278 281 280 280 283 284 283 284 281 270 259 250 240 237 237 235 233 233 236 241 245 249 255 260 262 265 262 223 222 226 228 231 224 219 222 226 231 224 209 216 224 216
174 186 181 170 178 185 182 188 190 207 224 219 212 218 228 229 241 251 256 266 266 268 277 278 278 282 289 289 287 286 283 276 264 248 240 238 236 234 233 233 235 236 238 245 250 251 255 256 243 255 233 215 223 225 221 219 222 230 229 220 221 221 213
181 185 182 177 184 190 187 192 203 208 212 225 232 238 240 230 239 252 258 263 262 263 266 271 277 281 287 289 285 282 280 278 276 265 252 242 237 236 234 233 232 231 231 234 236 234 236 235 222 259 250 222 239 238 227 223 223 228 227 221 221 218 213
188 187 191 191 188 191 197 197 204 216 221 228 231 240 243 234 242 255 265 272 272 271 266 266 270 271 278 282 280 280 278 273 273 275 270 257 243 237 236 236 235 234 234 236 237 233 232 230 221 235 249 246 280 279 268 252 234 229 222 216 220 219 213
191 190 193 195 192 194 202 202 204 218 228 233 231 237 243 242 252 260 264 270 274 275 272 271 270 268 273 277 277 280 281 276 273 274 276 272 262 249 241 238 237 236 237 238 239 237 235 236 230 239 258 257 256 269 276 281 265 245 229 218 221 220 214
191 192 193 197 198 198 202 205 209 219 229 240 241 245 251 252 255 260 262 264 268 271 272 273 275 274 275 277 277 278 278 278 277 276 276 276 274 265 253 245 241 239 239 239 241 240 236 236 233 232 248 259 260 258 265 274 280 265 245 233 229 226 219
192 194 196 200 203 200 204 207 211 221 229 240 249 252 256 255 257 263 268 272 273 275 276 275 277 278 279 280 280 278 277 279 278 277 276 275 275 273 264 255 246 241 239 238 239 240 237 236 234 233 232 240 258 253 257 264 258 248 250 248 238 229 224
192 195 197 201 204 201 203 208 213 225 232 239 249 256 259 259 263 268 272 276 278 280 281 281 279 279 280 282 282 280 278 278 278 277 277 275 274 273 270 264 255 247 241 238 237 239 239 238 235 234 230 225 231 241 251 251 239 231 240 245 242 232 228
193 196 198 201 202 201 206 212 217 225 236 245 252 257 261 262 265 269 272 275 276 277 279 282 281 280 281 282 282 281 279 278 277 277 277 277 276 273 270 267 258 249 244 240 238 237 238 238 237 235 232 226 223 225 240 244 239 222 223 232 242 241 232
195 196 199 201 201 203 212 220 226 232 239 247 252 256 262 266 270 272 276 277 277 277 278 278 279 279 281 282 281 279 279 279 279 278 276 276 277 277 274 269 260 251 247 244 241 239 238 237 237 235 234 231 227 224 226 239 247 236 226 225 240 256 241
198 198 199 201 203 208 216 220 225 234 240 246 253 260 264 268 272 274 277 280 280 280 279 277 277 278 279 280 281 280 280 280 280 278 276 275 275 276 275 272 265 257 252 247 243 242 240 237 236 236 235 233 230 229 229 230 246 247 241 225 232 257 247
197 198 200 202 206 211 217 222 228 235 243 250 257 261 261 264 270 275 279 281 282 282 281 279 276 276 277 277 277 277 278 279 279 278 276 275 273 274 274 273 269 262 255 249 244 243 241 238 236 234 234 233 231 230 229 227 233 249 248 240 230 243 232
196 198 201 203 208 215 220 226 232 238 244 252 257 258 261 267 273 277 279 280 281 281 282 281 280 278 277 276 276 275 276 276 276 276 277 275 272 271 272 272 272 268 262 252 245 243 242 239 237 235 233 231 230 228 225 224 226 243 250 249 241 236 232
196 197 200 204 210 217 224 231 236 240 246 251 255 259 265 271 275 277 278 278 278 278 279 280 281 280 278 275 274 274 274 273 273 273 273 273 272 270 271 272 273 272 268 260 249 242 240 239 238 237 234 229 228 228 224 222 223 230 242 244 239 230 223
195 198 201 207 213 219 227 234 238 242 248 254 259 264 269 273 275 277 277 278 278 278 279 280 280 279 278 276 274 274 273 271 271 270 269 270 270 269 269 270 271 273 272 270 260 247 240 238 237 237 236 234 232 231 227 223 223 225 232 237 235 229 217
195 198 202 208 215 223 230 235 240 246 252 259 267 271 273 274 274 276 277 279 280 279 279 279 279 278 275 274 274 273 272 271 269 269 267 268 268 268 267 266 266 269 271 274 273 262 248 239 235 236 238 238 235 235 233 226 224 225 226 232 234 232 223
195 199 204 210 217 226 232 237 243 250 257 265 271 274 276 276 276 277 278 278 279 278 279 278 277 277 275 273 273 271 270 269 269 269 267 267 267 266 266 266 264 264 266 269 272 271 264 250 238 235 237 239 237 236 236 230 227 227 224 226 228 225 219
197 200 206 212 220 227 232 238 247 255 261 269 274 276 279 280 280 280 279 279 278 277 278 277 276 275 274 273 273 272 271 269 269 269 268 268 267 265 265 266 265 263 262 263 264 266 269 266 254 240 235 237 238 238 237 232 230 228 225 225 222 210 200
198 201 208 214 219 226 232 240 251 257 263 272 277 280 282 283 284 285 283 282 281 279 279 278 277 277 277 275 273 271 271 271 270 269 268 267 267 266 264 264 265 264 262 261 261 261 262 266 269 261 248 241 238 238 239 237 232 227 222 222 219 207 195
198 201 206 212 217 226 234 242 251 259 268 275 278 281 284 286 287 287 285 283 282 281 280 278 276 277 277 276 274 272 271 270 269 269 268 268 268 268 267 265 264 264 263 261 260 259 258 259 265 269 264 254 244 238 238 239 237 232 225 221 217 206 195
196 199 202 211 219 226 234 244 255 265 271 274 278 282 286 287 288 288 287 286 284 282 280 277 274 273 274 274 274 274 274 272 271 270 269 268 267 267 268 267 265 264 264 263 261 259 259 257 257 260 261 261 259 252 244 238 235 231 226 225 218 203 195
193 198 205 215 219 224 236 250 261 267 270 274 280 283 285 289 291 292 291 289 287 285 282 279 277 274 273 273 274 274 273 273 274 275 275 274 272 269 267 267 267 266 265 265 264 262 261 258 257 256 256 257 261 264 261 252 242 232 223 222 218 204 197
195 202 210 213 216 230 246 256 263 268 273 278 281 283 287 292 294 293 292 290 288 286 283 282 281 280 278 278 278 277 274 272 271 271 272 275 277 276 272 269 268 268 267 266 265 264 263 261 258 255 255 254 255 257 259 259 256 246 232 224 217 210 205
199 206 211 214 224 241 252 258 264 270 274 279 282 286 292 295 293 292 291 290 288 286 286 285 283 283 283 283 283 282 280 277 272 268 266 266 270 274 274 273 271 269 267 267 266 265 264 263 261 258 255 254 253 253 254 255 256 254 245 232 217 213 213
203 207 211 222 235 247 255 259 264 270 275 280 285 290 295 295 294 293 291 289 288 287 287 286 285 285 286 286 286 286 285 282 276 271 268 264 264 266 269 271 272 270 268 267 266 265 263 263 263 262 259 256 254 252 252 253 255 255 253 247 232 221 218
203 209 218 231 241 249 256 261 267 273 278 284 291 297 298 297 295 293 291 289 287 286 284 284 285 285 285 284 284 285 286 284 280 275 272 268 265 264 265 266 267 268 268 267 266 265 263 261 261 261 258 255 254 252 251 251 253 254 253 250 244 236 227
205 215 228 239 246 253 260 264 269 276 282 291 300 302 301 299 295 292 291 290 288 285 283 283 285 286 285 285 284 283 281 281 279 276 273 270 267 265 264 263 264 264 264 264 263 263 264 264 263 262 258 252 249 249 250 250 250 251 250 246 243 241 236
214 225 237 245 250 256 261 267 273 282 292 300 303 302 301 299 296 295 294 293 291 289 288 288 289 290 290 291 291 287 281 277 276 275 273 271 269 266 264 262 262 261 260 260 260 260 263 266 268 270 268 262 253 247 247 249 250 249 248 245 242 241 239
227 235 242 250 257 261 268 278 288 298 306 309 306 305 303 300 299 298 296 294 293 292 292 293 293 292 293 294 294 292 285 279 276 273 272 271 269 267 264 261 261 260 259 258 257 258 260 263 267 271 272 272 269 259 250 248 248 248 248 247 243 240 239
239 246 253 260 271 280 287 295 299 302 307 312 312 311 308 303 299 298 297 296 296 295 295 295 295 294 294 294 293 291 287 281 277 273 271 271 269 267 264 261 258 257 257 256 255 256 256 258 263 267 269 271 272 269 261 251 245 244 243 242 240 236 233
244 255 265 275 287 295 298 298 297 300 308 318 319 315 312 306 301 300 299 299 298 297 296 295 295 294 294 294 294 292 287 280 275 273 271 270 268 265 263 261 257 254 255 255 255 255 254 255 258 261 265 269 267 267 267 256 243 238 233 228 225 223 221
244 259 275 290 295 296 298 296 298 307 315 319 318 315 312 307 303 302 301 300 299 297 296 296 295 295 294 294 294 293 289 280 273 271 269 267 265 262 260 259 256 254 254 254 253 253 251 251 254 256 261 265 262 264 277 270 247 235 229 220 213 212 212
260 274 286 297 296 293 295 296 302 322 326 322 320 316 310 305 302 301 301 300 299 297 296 296 295 294 294 292 292 293 291 284 277 271 267 264 261 260 259 257 256 255 253 253 252 251 249 249 250 252 256 259 258 259 274 280 254 232 222 214 207 203 204
271 280 287 290 289 290 293 294 305 335 334 328 326 320 314 310 306 303 301 300 298 296 296 296 294 293 293 293 293 293 291 289 285 276 268 263 260 259 258 257 257 256 254 252 251 249 248 248 248 249 251 254 256 256 263 273 256 225 207 201 197 193 194
269 282 289 290 292 295 295 294 310 329 329 328 324 317 314 311 307 305 302 299 298 295 294 294 293 292 294 295 295 295 292 292 290 283 274 266 262 260 258 257 256 256 254 252 249 247 248 248 248 248 250 253 255 254 257 263 249 217 195 189 185 180 183
300 302 301 304 301 297 295 301 318 323 321 321 314 305 303 304 304 304 302 300 297 295 293 294 294 294 295 296 296 296 294 293 290 286 280 273 267 262 258 255 255 255 253 250 247 245 247 249 248 248 249 251 252 251 250 249 234 205 184 179 174 170 172